Previsão horária em Cegielnia

Hoje, 25 Julho, Domingo

Tempo Temperatura Precipitação Vento Pressão Humidade
00:00 +18°C° 0 mm 3 m/s 748 mmHg 72%
01:00 +17°C° 0 mm 3 m/s 748 mmHg 75%
02:00 +17°C° 0 mm 3 m/s 748 mmHg 75%
03:00 +17°C° 0 mm 3 m/s 748 mmHg 76%
04:00 +17°C° 0 mm 3 m/s 747 mmHg 77%
05:00 +18°C° 0 mm 3 m/s 747 mmHg 73%
06:00 +20°C° 0 mm 4 m/s 747 mmHg 69%
07:00 +21°C° 0 mm 4 m/s 747 mmHg 66%
08:00 +23°C° 0 mm 4 m/s 747 mmHg 62%
09:00 +25°C° 0 mm 5 m/s 747 mmHg 57%
10:00 +27°C° 0 mm 5 m/s 747 mmHg 53%
11:00 +28°C° 0 mm 5 m/s 747 mmHg 49%
12:00 +29°C° 0 mm 5 m/s 747 mmHg 46%
13:00 +30°C° 0 mm 5 m/s 747 mmHg 42%
14:00 +29°C° 0 mm 5 m/s 747 mmHg 44%
15:00 +29°C° 0 mm 4 m/s 747 mmHg 46%
16:00 +28°C° 0 mm 4 m/s 747 mmHg 48%
17:00 +26°C° 0.4 mm 4 m/s 747 mmHg 60%
18:00 +23°C° 0.4 mm 4 m/s 747 mmHg 71%
19:00 +21°C° 0.4 mm 3 m/s 747 mmHg 83%
20:00 +20°C° 0 mm 3 m/s 747 mmHg 85%
21:00 +19°C° 0 mm 2 m/s 747 mmHg 87%
22:00 +20°C° 0 mm 1 m/s 747 mmHg 89%
23:00 +19°C° 0 mm 2 m/s 747 mmHg 88%

Amanhã, 26 Julho, Segunda-feira

Tempo Temperatura Precipitação Vento Pressão Humidade
00:00 +19°C° 0 mm 2 m/s 747 mmHg 88%
01:00 +19°C° 0 mm 2 m/s 747 mmHg 87%
02:00 +19°C° 0 mm 2 m/s 747 mmHg 88%
03:00 +18°C° 0 mm 2 m/s 746 mmHg 88%
04:00 +19°C° 0 mm 1 m/s 746 mmHg 89%
05:00 +19°C° 0 mm 2 m/s 746 mmHg 83%
06:00 +21°C° 0 mm 2 m/s 746 mmHg 78%
07:00 +23°C° 0 mm 2 m/s 746 mmHg 73%
08:00 +25°C° 0 mm 2 m/s 747 mmHg 66%
09:00 +26°C° 0 mm 2 m/s 747 mmHg 59%
10:00 +28°C° 0 mm 2 m/s 747 mmHg 52%
11:00 +29°C° 0 mm 2 m/s 747 mmHg 49%
12:00 +30°C° 0 mm 2 m/s 746 mmHg 46%
13:00 +31°C° 0 mm 2 m/s 746 mmHg 43%
14:00 +31°C° 0 mm 2 m/s 746 mmHg 44%
15:00 +31°C° 0 mm 2 m/s 746 mmHg 44%
16:00 +31°C° 0 mm 2 m/s 746 mmHg 44%
17:00 +29°C° 0 mm 2 m/s 746 mmHg 49%
18:00 +28°C° 0 mm 1 m/s 746 mmHg 54%
19:00 +27°C° 0 mm 1 m/s 746 mmHg 59%
20:00 +26°C° 0 mm 1 m/s 746 mmHg 61%
21:00 +25°C° 0 mm 1 m/s 746 mmHg 63%
22:00 +24°C° 0 mm 1 m/s 746 mmHg 65%
23:00 +23°C° 0 mm 1 m/s 746 mmHg 67%

Depois de amanhã, 27 Julho, Terça-feira

Tempo Temperatura Precipitação Vento Pressão Humidade
00:00 +23°C° 0 mm 2 m/s 746 mmHg 69%
01:00 +21°C° 0 mm 2 m/s 746 mmHg 72%
02:00 +21°C° 0.1 mm 2 m/s 746 mmHg 76%
03:00 +20°C° 0.1 mm 2 m/s 746 mmHg 81%
04:00 +19°C° 0.1 mm 3 m/s 746 mmHg 85%
05:00 +20°C° 0.1 mm 3 m/s 747 mmHg 82%
06:00 +21°C° 0.1 mm 3 m/s 747 mmHg 79%
07:00 +24°C° 0.1 mm 3 m/s 747 mmHg 76%
08:00 +25°C° 0 mm 3 m/s 747 mmHg 69%
09:00 +27°C° 0 mm 3 m/s 747 mmHg 62%
10:00 +28°C° 0 mm 4 m/s 748 mmHg 56%
11:00 +29°C° 0 mm 3 m/s 747 mmHg 51%
12:00 +30°C° 0 mm 3 m/s 747 mmHg 47%
13:00 +31°C° 0 mm 3 m/s 747 mmHg 42%
14:00 +31°C° 0 mm 3 m/s 747 mmHg 41%
15:00 +31°C° 0 mm 3 m/s 747 mmHg 40%
16:00 +30°C° 0 mm 3 m/s 747 mmHg 40%
17:00 +29°C° 0 mm 3 m/s 747 mmHg 44%
18:00 +28°C° 0 mm 2 m/s 747 mmHg 49%
19:00 +27°C° 0 mm 2 m/s 746 mmHg 54%
20:00 +26°C° 0.1 mm 2 m/s 747 mmHg 57%
21:00 +25°C° 0.1 mm 2 m/s 747 mmHg 59%
22:00 +24°C° 0.1 mm 2 m/s 747 mmHg 62%
23:00 +23°C° 0 mm 2 m/s 747 mmHg 65%

28 Julho, Quarta-feira

Tempo Temperatura Precipitação Vento Pressão Humidade
00:00 +21°C° 0 mm 2 m/s 747 mmHg 67%
01:00 +21°C° 0 mm 2 m/s 747 mmHg 70%
02:00 +20°C° 0 mm 2 m/s 747 mmHg 72%
03:00 +20°C° 0 mm 3 m/s 746 mmHg 74%
04:00 +20°C° 0 mm 3 m/s 746 mmHg 77%
05:00 +20°C° 0.3 mm 3 m/s 747 mmHg 80%
06:00 +20°C° 0.3 mm 3 m/s 747 mmHg 83%
07:00 +20°C° 0.3 mm 3 m/s 747 mmHg 85%
08:00 +20°C° 0.1 mm 3 m/s 747 mmHg 83%
09:00 +20°C° 0.1 mm 4 m/s 747 mmHg 81%
10:00 +21°C° 0.1 mm 4 m/s 748 mmHg 78%
11:00 +21°C° 0 mm 4 m/s 748 mmHg 77%
12:00 +21°C° 0 mm 4 m/s 748 mmHg 75%
13:00 +21°C° 0 mm 3 m/s 748 mmHg 73%
14:00 +22°C° 0 mm 4 m/s 748 mmHg 67%
15:00 +25°C° 0 mm 4 m/s 747 mmHg 61%
16:00 +26°C° 0 mm 4 m/s 747 mmHg 54%
17:00 +25°C° 0 mm 3 m/s 747 mmHg 56%
18:00 +25°C° 0 mm 3 m/s 747 mmHg 57%
19:00 +24°C° 0 mm 2 m/s 747 mmHg 59%
20:00 +23°C° 0 mm 2 m/s 747 mmHg 59%
21:00 +23°C° 0 mm 2 m/s 747 mmHg 60%
22:00 +21°C° 0 mm 2 m/s 747 mmHg 60%
23:00 +20°C° 0 mm 2 m/s 748 mmHg 63%

29 Julho, Quinta-feira

Tempo Temperatura Precipitação Vento Pressão Humidade
00:00 +19°C° 0 mm 2 m/s 748 mmHg 65%
01:00 +19°C° 0 mm 3 m/s 748 mmHg 67%
02:00 +18°C° 0 mm 3 m/s 748 mmHg 72%
03:00 +17°C° 0 mm 3 m/s 748 mmHg 77%
04:00 +17°C° 0 mm 3 m/s 748 mmHg 81%
05:00 +18°C° 0 mm 3 m/s 748 mmHg 77%
06:00 +19°C° 0 mm 3 m/s 748 mmHg 73%
07:00 +21°C° 0 mm 3 m/s 749 mmHg 68%
08:00 +22°C° 0 mm 3 m/s 749 mmHg 61%
09:00 +25°C° 0 mm 3 m/s 749 mmHg 53%
10:00 +26°C° 0 mm 3 m/s 749 mmHg 45%
11:00 +27°C° 0 mm 3 m/s 748 mmHg 43%
12:00 +27°C° 0 mm 4 m/s 748 mmHg 42%
13:00 +28°C° 0 mm 4 m/s 748 mmHg 41%
14:00 +28°C° 0 mm 3 m/s 748 mmHg 42%
15:00 +28°C° 0 mm 3 m/s 748 mmHg 43%
16:00 +27°C° 0 mm 2 m/s 747 mmHg 44%
17:00 +27°C° 0 mm 2 m/s 747 mmHg 48%
18:00 +26°C° 0 mm 2 m/s 747 mmHg 52%
19:00 +25°C° 0 mm 1 m/s 747 mmHg 56%
20:00 +24°C° 0 mm 1 m/s 747 mmHg 56%
21:00 +24°C° 0 mm 2 m/s 746 mmHg 56%
22:00 +23°C° 0 mm 2 m/s 746 mmHg 57%
23:00 +21°C° 0 mm 2 m/s 746 mmHg 60%

30 Julho, Sexta-feira

Tempo Temperatura Precipitação Vento Pressão Humidade
00:00 +20°C° 0 mm 2 m/s 746 mmHg 63%
01:00 +20°C° 0 mm 2 m/s 746 mmHg 66%
02:00 +20°C° 0 mm 2 m/s 746 mmHg 65%
03:00 +20°C° 0 mm 2 m/s 746 mmHg 64%
04:00 +20°C° 0 mm 2 m/s 745 mmHg 64%
05:00 +21°C° 0.1 mm 3 m/s 745 mmHg 63%
06:00 +24°C° 0.1 mm 3 m/s 745 mmHg 62%
07:00 +25°C° 0.1 mm 4 m/s 745 mmHg 60%
08:00 +25°C° 0.2 mm 4 m/s 745 mmHg 63%
09:00 +25°C° 0.2 mm 4 m/s 746 mmHg 66%
10:00 +25°C° 0.2 mm 4 m/s 746 mmHg 69%
11:00 +27°C° 0.1 mm 5 m/s 746 mmHg 62%
12:00 +28°C° 0.1 mm 5 m/s 745 mmHg 54%
13:00 +30°C° 0.1 mm 6 m/s 745 mmHg 47%
14:00 +30°C° 0.1 mm 5 m/s 745 mmHg 46%
15:00 +29°C° 0.1 mm 5 m/s 746 mmHg 45%
16:00 +29°C° 0.1 mm 4 m/s 746 mmHg 44%
17:00 +28°C° 0 mm 4 m/s 746 mmHg 48%
18:00 +26°C° 0 mm 3 m/s 745 mmHg 51%
19:00 +25°C° 0 mm 3 m/s 745 mmHg 55%
20:00 +24°C° 0 mm 2 m/s 746 mmHg 57%
21:00 +24°C° 0 mm 2 m/s 746 mmHg 59%
22:00 +23°C° 0 mm 1 m/s 746 mmHg 61%
23:00 +22°C° 0.2 mm 1 m/s 746 mmHg 67%
Mostrar mais

Necessitamos do seu Consentimento

A Meteoprog e os seus Fornecedores de Serviços podem armazenar e aceder a dados pessoais como cookies, identificadores do dispositivo ou outras tecnologias semelhantes existentes no seu dispositivo e processar estes dados para personalizar conteúdos e anúncios, assim como funcionalidades nas redes sociais e análise de tráfego.

  • Armazenar e/ou aceder a informações no seu dispositivo

    Os cookies, identificadores do dispositivo ou outras informações podem ser armazenados ou acedidos no seu dispositivo, para os fins acima indicados.

  • Anúncios e conteúdos personalizados, medição de anúncios e conteúdos, dados sobre o público-alvo e desenvolvimento de produtos

    Os anúncios e os conteúdos podem ser personalizados com base num perfil. Podem ser adicionados dados adicionais para uma maior personalização dos anúncios e dos conteúdos. A eficácia dos anúncios e dos conteúdos pode ser medida. Podem ser obtidas informações sobre o público que visualizou os anúncios e os conteúdos. Estes dados podem ser usados para desenvolver ou melhorar sistemas, softwares ou a experiência do utilizador.

Ao clicar em "Eu concordo”, permitirá o uso de cookies, identificadores do dispositivo e web beacons mencionados ou outras tecnologias semelhantes. As configurações do navegador do seu dispositivo podem ser alteradas.

Para certos fins, podem ser invocados interesses legítimos ao invés de consentimento. Pode ler mais informação sobre este assunto na nossa Política de Privacidade e Cookies.